When you browse on this site, cookies collect data to enhance your experience and personalize the content and advertising you see.
Visit our Privacy Policy to learn more. By continuing to use the site, you agree to this use of cookies and data.
  • In Netherlands
  • List of Countries
  • For 7 days
  • Water Temperature
  • Satellite Maps
  • Weather Map
  • Weather Widgets
  • user-avatar
    Login

    Hourly Weather Razdolnoe

    Today, 19 July, Friday

    Time Temperature Precipitation Wind Pressure Humidity
    00:00 +24°C° 0.5 mm 2 mps 745 mmHg 69%
    01:00 +23°C° 0.4 mm 2 mps 745 mmHg 74%
    02:00 +21°C° 0.4 mm 2 mps 745 mmHg 80%
    03:00 +21°C° 0.4 mm 2 mps 745 mmHg 85%
    04:00 +21°C° 0.5 mm 2 mps 746 mmHg 86%
    05:00 +21°C° 0.5 mm 3 mps 746 mmHg 87%
    06:00 +21°C° 0.5 mm 3 mps 747 mmHg 88%
    07:00 +22°C° 0.3 mm 3 mps 747 mmHg 82%
    08:00 +25°C° 0.3 mm 3 mps 747 mmHg 76%
    09:00 +26°C° 0.3 mm 3 mps 747 mmHg 71%
    10:00 +27°C° 0 mm 3 mps 747 mmHg 64%
    11:00 +29°C° 0 mm 2 mps 747 mmHg 56%
    12:00 +30°C° 0 mm 2 mps 747 mmHg 49%
    13:00 +31°C° 0 mm 1 mps 747 mmHg 47%
    14:00 +31°C° 0 mm 1 mps 747 mmHg 45%
    15:00 +32°C° 0 mm 1 mps 747 mmHg 43%
    16:00 +31°C° 0.1 mm 1 mps 747 mmHg 47%
    17:00 +31°C° 0.1 mm 1 mps 747 mmHg 50%
    18:00 +30°C° 0.1 mm 1 mps 747 mmHg 54%
    19:00 +29°C° 0.1 mm 2 mps 748 mmHg 57%
    20:00 +28°C° 0.1 mm 2 mps 748 mmHg 61%
    21:00 +27°C° 0.1 mm 2 mps 748 mmHg 65%
    22:00 +26°C° 0 mm 3 mps 749 mmHg 69%
    23:00 +25°C° 0 mm 4 mps 749 mmHg 73%

    Tomorrow, 20 July, Saturday

    Time Temperature Precipitation Wind Pressure Humidity
    00:00 +23°C° 0 mm 5 mps 749 mmHg 77%
    01:00 +23°C° 0 mm 4 mps 749 mmHg 80%
    02:00 +22°C° 0 mm 4 mps 749 mmHg 82%
    03:00 +22°C° 0 mm 4 mps 749 mmHg 85%
    04:00 +22°C° 0 mm 3 mps 750 mmHg 85%
    05:00 +22°C° 0 mm 3 mps 750 mmHg 85%
    06:00 +22°C° 0 mm 3 mps 750 mmHg 85%
    07:00 +22°C° 0 mm 3 mps 751 mmHg 83%
    08:00 +23°C° 0 mm 2 mps 751 mmHg 81%
    09:00 +23°C° 0 mm 2 mps 751 mmHg 79%
    10:00 +24°C° 0 mm 2 mps 751 mmHg 75%
    11:00 +25°C° 0 mm 2 mps 751 mmHg 71%
    12:00 +26°C° 0 mm 2 mps 751 mmHg 67%
    13:00 +27°C° 0 mm 2 mps 751 mmHg 62%
    14:00 +28°C° 0 mm 2 mps 751 mmHg 58%
    15:00 +30°C° 0 mm 2 mps 751 mmHg 54%
    16:00 +30°C° 0 mm 1 mps 751 mmHg 54%
    17:00 +30°C° 0 mm 1 mps 751 mmHg 54%
    18:00 +30°C° 0 mm 1 mps 751 mmHg 55%
    19:00 +29°C° 0 mm 1 mps 751 mmHg 58%
    20:00 +27°C° 0 mm 1 mps 751 mmHg 62%
    21:00 +26°C° 0 mm 1 mps 751 mmHg 65%
    22:00 +26°C° 0 mm 1 mps 751 mmHg 66%
    23:00 +26°C° 0 mm 2 mps 751 mmHg 66%

    Day after tomorrow, 21 July, Sunday

    Time Temperature Precipitation Wind Pressure Humidity
    00:00 +26°C° 0 mm 2 mps 751 mmHg 66%
    01:00 +25°C° 0 mm 2 mps 751 mmHg 70%
    02:00 +24°C° 0 mm 1 mps 751 mmHg 73%
    03:00 +23°C° 0 mm 1 mps 750 mmHg 76%
    04:00 +24°C° 0 mm 1 mps 750 mmHg 76%
    05:00 +24°C° 0 mm 1 mps 750 mmHg 76%
    06:00 +24°C° 0 mm 1 mps 750 mmHg 76%
    07:00 +26°C° 0 mm 2 mps 750 mmHg 69%
    08:00 +28°C° 0 mm 3 mps 750 mmHg 63%
    09:00 +29°C° 0 mm 4 mps 750 mmHg 56%
    10:00 +32°C° 0 mm 4 mps 749 mmHg 51%
    11:00 +33°C° 0 mm 5 mps 749 mmHg 45%
    12:00 +35°C° 0 mm 5 mps 749 mmHg 40%
    13:00 +35°C° 0 mm 5 mps 749 mmHg 37%
    14:00 +36°C° 0 mm 5 mps 748 mmHg 35%
    15:00 +38°C° 0 mm 6 mps 748 mmHg 33%
    16:00 +36°C° 0 mm 5 mps 748 mmHg 36%
    17:00 +35°C° 0 mm 5 mps 748 mmHg 39%
    18:00 +34°C° 0 mm 4 mps 749 mmHg 42%
    19:00 +32°C° 0 mm 4 mps 749 mmHg 43%
    20:00 +29°C° 0 mm 4 mps 749 mmHg 45%
    21:00 +28°C° 0 mm 4 mps 749 mmHg 47%
    22:00 +27°C° 0 mm 4 mps 749 mmHg 50%
    23:00 +26°C° 0 mm 3 mps 749 mmHg 54%

    22 July, Monday

    Time Temperature Precipitation Wind Pressure Humidity
    00:00 +25°C° 0 mm 3 mps 749 mmHg 57%
    01:00 +25°C° 0.7 mm 2 mps 749 mmHg 63%
    02:00 +24°C° 0.7 mm 1 mps 749 mmHg 69%
    03:00 +24°C° 0.7 mm 1 mps 749 mmHg 75%
    04:00 +24°C° 0.3 mm 1 mps 749 mmHg 77%
    05:00 +24°C° 0.3 mm 1 mps 749 mmHg 78%
    06:00 +24°C° 0.3 mm 1 mps 749 mmHg 79%
    07:00 +25°C° 0 mm 1 mps 749 mmHg 74%
    08:00 +26°C° 0 mm 1 mps 749 mmHg 70%
    09:00 +27°C° 0 mm 2 mps 748 mmHg 65%
    10:00 +29°C° 0 mm 2 mps 748 mmHg 59%
    11:00 +30°C° 0 mm 3 mps 748 mmHg 52%
    12:00 +33°C° 0 mm 3 mps 748 mmHg 45%
    13:00 +33°C° 0.1 mm 4 mps 748 mmHg 46%
    14:00 +33°C° 0.1 mm 4 mps 748 mmHg 47%
    15:00 +33°C° 0.1 mm 4 mps 748 mmHg 48%
    16:00 +30°C° 0.2 mm 4 mps 748 mmHg 54%
    17:00 +28°C° 0.2 mm 3 mps 748 mmHg 61%
    18:00 +26°C° 0.2 mm 3 mps 749 mmHg 67%
    19:00 +26°C° 0.1 mm 2 mps 749 mmHg 70%
    20:00 +25°C° 0.1 mm 2 mps 749 mmHg 72%
    21:00 +25°C° 0.1 mm 1 mps 749 mmHg 75%
    22:00 +24°C° 0 mm 1 mps 749 mmHg 76%
    23:00 +22°C° 0 mm 0 mps 749 mmHg 78%

    23 July, Tuesday

    Time Temperature Precipitation Wind Pressure Humidity
    00:00 +21°C° 0 mm 0 mps 748 mmHg 79%
    01:00 +21°C° 0 mm 0 mps 748 mmHg 80%
    02:00 +20°C° 0 mm 0 mps 748 mmHg 81%
    03:00 +20°C° 0 mm 0 mps 748 mmHg 82%
    04:00 +20°C° 0 mm 0 mps 748 mmHg 81%
    05:00 +21°C° 0 mm 0 mps 748 mmHg 79%
    06:00 +21°C° 0 mm 0 mps 747 mmHg 77%
    07:00 +25°C° 0 mm 1 mps 747 mmHg 70%
    08:00 +26°C° 0 mm 1 mps 747 mmHg 62%
    09:00 +28°C° 0 mm 2 mps 747 mmHg 55%
    10:00 +29°C° 0.2 mm 2 mps 747 mmHg 53%
    11:00 +30°C° 0.2 mm 3 mps 746 mmHg 51%
    12:00 +30°C° 0.2 mm 3 mps 746 mmHg 49%
    13:00 +30°C° 0.3 mm 3 mps 746 mmHg 49%
    14:00 +31°C° 0.3 mm 3 mps 746 mmHg 49%
    15:00 +31°C° 0.3 mm 3 mps 745 mmHg 49%
    16:00 +30°C° 0.4 mm 3 mps 745 mmHg 52%
    17:00 +30°C° 0.4 mm 2 mps 745 mmHg 56%
    18:00 +29°C° 0.4 mm 1 mps 745 mmHg 59%
    19:00 +27°C° 0.7 mm 1 mps 745 mmHg 65%
    20:00 +26°C° 0.7 mm 1 mps 745 mmHg 70%
    21:00 +25°C° 0.7 mm 1 mps 745 mmHg 76%
    22:00 +24°C° 0.3 mm 1 mps 745 mmHg 76%
    23:00 +24°C° 0.3 mm 1 mps 745 mmHg 77%

    24 July, Wednesday

    Time Temperature Precipitation Wind Pressure Humidity
    00:00 +24°C° 0.3 mm 1 mps 745 mmHg 78%
    01:00 +21°C° 0 mm 0 mps 745 mmHg 79%
    02:00 +21°C° 0 mm 0 mps 745 mmHg 80%
    03:00 +20°C° 0 mm 0 mps 744 mmHg 81%
    04:00 +21°C° 0 mm 0 mps 744 mmHg 79%
    05:00 +21°C° 0 mm 0 mps 744 mmHg 78%
    06:00 +22°C° 0 mm 0 mps 744 mmHg 77%
    07:00 +24°C° 0 mm 0 mps 744 mmHg 69%
    08:00 +27°C° 0 mm 1 mps 744 mmHg 61%
    09:00 +29°C° 0 mm 1 mps 744 mmHg 53%
    10:00 +30°C° 0 mm 2 mps 744 mmHg 48%
    11:00 +32°C° 0 mm 2 mps 744 mmHg 43%
    12:00 +34°C° 0 mm 3 mps 743 mmHg 38%
    13:00 +35°C° 0 mm 3 mps 743 mmHg 36%
    14:00 +36°C° 0 mm 3 mps 743 mmHg 35%
    15:00 +36°C° 0 mm 3 mps 743 mmHg 33%
    16:00 +36°C° 0 mm 3 mps 743 mmHg 36%
    17:00 +35°C° 0 mm 3 mps 743 mmHg 38%
    18:00 +35°C° 0 mm 3 mps 743 mmHg 41%
    19:00 +33°C° 0 mm 3 mps 743 mmHg 42%
    20:00 +30°C° 0 mm 2 mps 744 mmHg 44%
    21:00 +28°C° 0 mm 2 mps 744 mmHg 45%
    22:00 +27°C° 0 mm 2 mps 744 mmHg 47%
    23:00 +27°C° 0 mm 1 mps 744 mmHg 49%
    Show more